Location: Corralito
(10.5000°N, 67.1333°W)
Time: 08:17:42
(UTC+00:00)

IKONOS-2 - Pass Details

Date: 18 April 2024
Orbit: 586 x 597 km, 98.2° (Epoch: 27 May)

Event Time Altitude Azimuth Distance (km) Brightness Sun altitude
Rises 23:23:25 0° 16° (NNE) 2,825 7.9 -11.3°
Reaches altitude 10° 23:25:36 10° 20° (NNE) 1,922 7.0 -11.9°
Maximum altitude 23:29:44 65° 101° (E) 653 4.4 -12.8°
Drops below altitude 10° 23:33:51 10° 184° (S) 1,916 7.0 -13.8°
Sets 23:36:01 0° 187° (S) 2,815 7.9 -14.3°
